sat.trackr.live / text

‹ back to catalog

CHINASAT 9C

NORAD 64470 · 2025-132A

PAYLOAD ACTIVE UNKNOWN

§ Identity

Operator
Country
PRC
Launch date
2025-06-20
Launch site
XICLF
Launch vehicle
Mass (kg)
RCS (m²)

Purposes: comms

External: N2YO · Heavens-Above · Gunter

§ Orbital elements

Epoch: 2026-09-19T22:32:26.774592Z

Period
1,436.10 min
Inclination
0.0157°
Eccentricity
0.0003011
Mean motion
1.00271391 rev/d
Perigee alt
35,774.0 km
Apogee alt
35,799.4 km
Semi-major
42,164.8 km
B*
0.0000e+0
RAAN
135.6154°
Arg perigee
34.3093°
Mean anomaly
259.2477°
Rev number
509

§ Raw data

CHINASAT 9C1 64470U 25132A   26262.93919878 -.00000252  00000+0  00000+0 0  99942 64470   0.0157 135.6154 0003011  34.3093 259.2477  1.00271391  5092

JSON: /api/v1/satellites/64470 · /tle

For live sub-satellite position, see the globe view (requires WebGL).

§ Visibility from observer

Set your observer location to see the next 7 days of passes ≥ 10°. The values pass through the URL so the page stays shareable.

No JS? Fill the form by hand. The geolocation button needs JavaScript.